CW3081 Weather Reports


Display with metric or nautical units.
time (UTC)temp
F
wind
direction
speed
MPH
gust
MPH
rain 1hr
in
rain 24hr
in
rain mn
in
humidity
%
barometer
mb
20260901011550 78 0 0.0 0.0 0.00 0.00 0.00 89 1017.7
20260901010052 79 0 0.0 0.0 0.00 0.00 0.00 88 1017.6
20260901004605 80 0 0.0 0.0 0.00 0.00 0.00 87 1017.6
20260901003052 81 0 0.0 0.0 0.00 0.00 0.00 85 1017.6
20260901001549 82 0 0.0 0.0 0.00 0.00 0.00 83 1017.7
20260901000113 83 0 0.0 0.0 0.00 0.00 0.00 81 1017.8
20260831234556 84 0 0.0 0.0 0.00 0.00 0.00 80 1017.9
20260831233051 85 0 0.0 0.0 0.00 0.00 0.00 77 1018.0
20260831231552 86 0 0.0 0.0 0.00 0.00 0.00 74 1017.9
20260831230059 87 0 0.0 0.0 0.00 0.00 0.00 72 1018.1
20260831224555 88 0 0.0 0.0 0.00 0.00 0.00 71 1018.2
20260831223057 89 0 0.0 0.0 0.00 0.00 0.00 74 1018.1
20260831221550 89 0 0.0 0.0 0.00 0.00 0.00 65 1018.1
20260831220048 90 0 0.0 0.0 0.00 0.00 0.00 67 1018.3
20260831214554 89 0 0.0 0.0 0.00 0.00 0.00 62 1018.2
20260831213056 89 0 0.0 0.0 0.00 0.00 0.00 61 1018.4
20260831211557 89 0 0.0 0.0 0.00 0.00 0.00 65 1018.6
20260831210053 89 0 0.0 1.0 0.00 0.00 0.00 65 1018.6
20260831204550 89 27 0.0 1.0 0.00 0.00 0.00 63 1018.7
20260831203106 90 0 0.0 1.0 0.00 0.00 0.00 62 1018.6
20260831201550 90 0 0.0 2.0 0.00 0.00 0.00 63 1018.7
20260831200059 90 317 0.0 1.0 0.00 0.00 0.00 66 1018.9
20260831194628 90 294 0.0 2.0 0.00 0.00 0.00 62 1019.1
20260831193050 90 70 0.0 1.0 0.00 0.00 0.00 60 1019.3
20260831191555 90 360 0.0 2.0 0.00 0.00 0.00 63 1019.4
20260831190123 89 0 0.0 2.0 0.00 0.00 0.00 62 1019.5
20260831184604 89 32 1.0 2.0 0.00 0.00 0.00 67 1019.7
20260831183108 89 0 0.0 1.0 0.00 0.00 0.00 65 1019.9
20260831181551 90 0 0.0 3.0 0.00 0.00 0.00 65 1020.0
20260831180101 89 0 0.0 2.0 0.00 0.00 0.00 64 1020.3
20260831174554 87 202 0.0 1.0 0.00 0.00 0.00 69 1020.6
20260831173049 84 0 0.0 0.0 0.00 0.00 0.00 80 1020.7
20260831171559 85 0 0.0 0.0 0.00 0.00 0.00 73 1020.8
20260831170056 86 0 0.0 0.0 0.00 0.00 0.00 73 1020.9
20260831164559 87 0 0.0 1.0 0.00 0.00 0.00 72 1021.0
20260831163051 87 0 0.0 2.0 0.00 0.00 0.00 72 1021.0
20260831161602 85 0 0.0 2.0 0.00 0.00 0.00 74 1021.1
20260831160104 86 255 0.0 2.0 0.00 0.00 0.00 72 1021.1
20260831154706 86 0 0.0 1.0 0.00 0.00 0.00 74 1021.0
20260831153051 85 0 0.0 2.0 0.00 0.00 0.00 74 1020.9
20260831151601 84 264 0.0 1.0 0.00 0.00 0.00 77 1021.0
20260831150057 83 256 0.0 2.0 0.00 0.00 0.00 77 1020.7
20260831144554 82 0 0.0 1.0 0.00 0.00 0.00 79 1020.7
20260831143107 81 0 0.0 0.0 0.00 0.00 0.00 83 1020.6
20260831141610 79 0 0.0 1.0 0.00 0.00 0.00 86 1020.6
20260831140057 77 0 0.0 0.0 0.00 0.00 0.00 90 1020.5
20260831134601 76 0 0.0 0.0 0.00 0.00 0.00 93 1020.5
20260831133050 74 0 0.0 0.0 0.00 0.00 0.00 96 1020.4
20260831131549 72 0 0.0 0.0 0.00 0.00 0.00 97 1020.4
20260831130058 71 0 0.0 0.0 0.00 0.00 0.00 97 1020.4
20260831124559 0 0.0 0.0 0.00 0.00 0.00 1020.3
20260831123052 0 0.0 0.0 0.00 0.00 0.00 1020.1
20260831121600 0 0.0 0.0 0.00 0.00 0.00 1020.0
20260831120053 0 0.0 0.0 0.00 0.00 0.00 1020.2
20260831114553 0 0.0 0.0 0.00 0.00 0.00 1020.1
20260831113054 0 0.0 0.0 0.00 0.00 0.00 1020.0
20260831111601 0 0.0 0.0 0.00 0.00 0.00 1019.8
20260831110056 0 0.0 0.0 0.00 0.00 0.00 1019.6
20260831104552 0 0.0 0.0 0.00 0.00 0.00 1019.5
20260831103101 0 0.0 0.0 0.00 0.00 0.00 1019.3
20260831101616 0 0.0 0.0 0.00 0.00 0.00 1019.1
20260831100108 0 0.0 0.0 0.00 0.00 0.00 1019.2
20260831094601 0 0 0.0 0.0 0.00 0.00 0.00 1019.0
20260831093102 71 0 0.0 0.0 0.00 0.00 0.00 95 1018.9
20260831091556 71 0 0.0 0.0 0.00 0.00 0.00 95 1018.7
20260831090105 71 0 0.0 0.0 0.00 0.00 0.00 95 1018.9
20260831084553 71 0 0.0 0.0 0.00 0.00 0.00 96 1018.6
20260831083107 71 0 0.0 0.0 0.00 0.00 0.00 96 1018.7
20260831081554 71 0 0.0 0.0 0.00 0.00 0.00 95 1018.6
20260831080054 71 0 0.0 0.0 0.00 0.00 0.00 95 1018.5
20260831074552 71 0 0.0 0.0 0.00 0.00 0.00 95 1018.4
20260831073103 71 0 0.0 0.0 0.00 0.00 0.00 95 1018.5
20260831071554 71 0 0.0 0.0 0.00 0.00 0.00 95 1018.6
20260831070052 71 0 0.0 0.0 0.00 0.00 0.00 95 1018.7
20260831064558 72 0 0.0 0.0 0.00 0.00 0.00 95 1018.8
20260831063052 72 0 0.0 0.0 0.00 0.00 0.00 95 1018.8
20260831061607 72 0 0.0 0.0 0.00 0.00 0.00 95 1018.9
20260831054558 72 0 0.0 0.0 0.00 0.00 0.00 95 1018.9
20260831053052 72 0 0.0 0.0 0.00 0.00 0.00 95 1018.9
20260831051623 72 0 0.0 0.0 0.00 0.00 0.00 95 1018.9
20260831050051 73 0 0.0 0.0 0.00 0.00 0.00 94 1018.9
20260831044601 73 0 0.0 0.0 0.00 0.00 0.00 94 1018.8
20260831043052 73 0 0.0 0.0 0.00 0.00 0.00 94 1018.8
20260831041605 73 0 0.0 0.0 0.00 0.00 0.00 94 1018.9
20260831040101 74 0 0.0 0.0 0.00 0.00 0.00 94 1018.9
20260831034551 74 0 0.0 0.0 0.00 0.00 0.00 94 1019.1
20260831033051 74 0 0.0 0.0 0.00 0.00 0.00 93 1019.0
20260831031548 74 0 0.0 0.0 0.00 0.00 0.00 93 1019.0
20260831030110 75 0 0.0 0.0 0.00 0.00 0.00 92 1019.0
20260831024639 75 0 0.0 0.0 0.00 0.00 0.00 92 1018.8
20260831023055 75 0 0.0 0.0 0.00 0.00 0.00 91 1018.8
20260831021558 76 0 0.0 0.0 0.00 0.00 0.00 91 1018.7
20260831020104 76 0 0.0 0.0 0.00 0.00 0.00 90 1018.7
20260831014603 76 0 0.0 0.0 0.00 0.00 0.00 90 1018.5
20260831013113 77 0 0.0 0.0 0.00 0.00 0.00 89 1018.2